RH
81 81 82 83 83 83 84 84 84 84 84 84 84 85 87 91 89 65 20 21 60 87 74 57 59 59 61 60 58 48 49 40 44 44 46 37 39 36 38 44 53 53 53 60 71
80 81 82 82 82 82 83 84 84 84 84 85 85 85 86 91 56 22 28 68 89 86 53 55 60 55 58 57 49 43 46 37 30 34 40 37 35 37 41 45 61 66 67 68 69
80 81 81 81 81 81 81 83 83 83 84 85 85 84 88 85 21 6 66 86 86 67 46 50 49 47 50 46 39 42 38 35 31 30 34 36 38 34 40 44 48 52 67 66 65
80 81 81 80 80 80 81 81 82 83 85 85 84 84 90 64 10 31 87 90 85 43 46 46 50 43 41 39 34 40 33 30 35 36 35 37 34 36 39 38 36 45 57 63 64
80 82 81 80 81 81 81 82 83 84 84 85 83 84 55 12 6 48 88 83 58 45 41 43 44 38 36 36 35 38 32 30 34 33 33 34 37 36 38 42 40 54 60 61 61
82 81 80 81 81 81 82 84 85 85 84 84 82 84 33 5 20 59 59 65 49 42 40 33 30 31 33 37 36 33 30 35 34 34 34 36 39 36 35 49 52 57 58 57 60
83 82 82 80 81 82 83 86 86 86 84 83 81 70 20 4 17 57 59 54 51 35 37 34 30 33 33 37 36 33 39 36 35 36 38 33 41 36 40 47 52 54 56 57 58
82 80 81 81 82 84 87 89 87 86 84 82 80 59 9 9 41 55 44 47 39 35 34 29 28 34 38 36 35 32 35 43 38 35 36 33 44 35 41 46 47 49 56 58 60
85 83 82 83 84 88 90 88 86 79 78 81 56 26 6 25 15 40 39 40 37 34 33 28 32 34 37 36 35 45 47 44 44 39 37 38 44 35 36 39 43 46 50 53 60
87 86 86 86 88 89 89 87 74 78 70 63 45 23 10 8 13 39 36 27 37 32 32 32 34 38 37 35 49 51 53 52 44 40 39 39 40 37 36 36 38 40 43 51 55
87 87 87 87 88 88 81 43 27 29 45 16 13 12 17 15 13 19 28 26 30 27 31 36 34 34 36 41 43 46 40 38 40 49 49 44 43 41 38 35 36 42 47 52 54
86 86 87 87 88 90 72 22 23 23 20 21 27 22 19 16 13 14 20 27 26 24 35 38 36 36 34 33 33 44 42 52 58 55 55 50 45 39 40 38 34 42 59 60 56
86 86 87 88 89 65 36 22 27 23 23 20 24 22 18 16 13 12 20 23 26 30 32 29 30 33 35 36 37 39 42 48 54 52 48 59 49 43 38 38 37 38 41 46 57
87 87 88 90 55 50 26 27 31 24 21 15 19 18 20 17 11 12 14 14 20 27 30 29 25 33 36 36 35 45 41 44 59 57 64 50 46 42 36 39 40 39 38 38 54
86 87 86 87 64 31 23 35 26 22 17 16 18 15 20 12 9 12 8 7 14 24 24 25 25 31 34 33 34 44 42 43 52 54 57 52 50 34 41 43 40 39 37 36 40
87 89 86 86 77 40 40 30 22 24 26 18 15 18 19 13 7 9 7 8 13 21 20 22 30 31 35 43 39 46 48 51 55 58 64 52 48 35 36 34 36 36 37 37 41
88 92 86 55 24 40 35 21 25 24 18 14 13 16 15 13 8 9 10 10 12 17 20 18 35 42 38 48 44 43 41 53 54 60 56 54 57 37 31 31 29 31 35 38 45
90 89 85 58 48 43 23 23 31 23 16 13 13 14 15 11 11 9 11 10 11 10 14 19 28 40 37 32 36 44 42 39 58 57 44 56 47 31 32 32 28 26 29 36 42
90 49 52 41 51 47 23 24 25 22 16 16 13 13 14 10 10 10 10 9 8 9 11 16 18 35 40 42 36 49 46 48 57 54 50 47 40 32 30 32 31 28 33 38 41
62 42 32 43 39 21 25 35 24 21 16 14 17 15 16 12 10 10 11 10 9 10 9 12 17 34 44 37 42 39 40 42 42 56 59 42 44 35 32 32 33 32 34 39 41
41 30 29 31 25 20 20 19 19 16 17 17 15 16 15 14 12 12 11 19 22 9 10 13 13 45 44 39 34 48 41 43 39 39 46 47 30 32 34 32 33 29 32 36 40
43 32 31 24 25 33 21 23 39 20 19 19 17 15 14 16 15 15 12 20 25 18 10 10 11 22 30 33 32 36 36 33 34 51 52 52 34 26 32 29 28 28 32 34 38
51 48 33 22 25 26 26 21 19 19 22 22 22 26 27 26 22 22 24 24 24 24 14 11 14 16 16 30 37 36 37 32 45 46 57 40 29 28 30 31 31 29 35 41 40
44 33 31 32 35 25 26 23 19 18 21 23 25 26 25 27 25 28 22 21 22 27 49 37 10 10 13 15 24 35 37 36 33 43 37 36 26 27 27 28 30 32 36 38 42
50 47 54 34 33 27 24 24 22 22 22 23 24 28 29 26 26 27 24 22 26 36 29 15 13 16 13 14 19 16 19 34 34 27 34 22 33 23 25 24 25 27 33 39 40
50 50 50 45 46 32 40 28 24 25 26 24 25 27 26 28 28 28 25 27 29 22 26 22 20 19 16 11 18 27 22 25 30 22 33 29 32 23 24 28 30 28 34 38 40
64 61 53 58 41 31 34 34 32 30 31 29 26 27 27 30 29 26 25 23 22 25 24 26 20 22 18 27 19 19 20 22 28 27 27 34 25 25 28 31 27 26 30 34 36
Wind_Speed
18 18 18 18 17 18 18 17 16 16 16 17 15 14 13 12 11 3 6 4 11 22 18 16 7 9 7 3 2 2 2 3 4 9 7 10 6 7 3 8 4 4 5 10 14
18 18 18 19 19 18 18 18 17 16 16 16 15 14 13 11 3 8 6 14 26 20 17 17 11 11 4 4 3 2 1 2 6 9 12 12 10 8 7 6 5 9 11 13 12
17 17 18 19 19 19 18 18 19 17 17 17 16 14 12 9 3 3 7 18 26 17 14 11 12 6 2 2 5 4 2 1 2 9 15 15 7 5 10 3 8 13 14 12 11
18 18 18 19 19 19 19 19 19 18 17 16 15 14 13 3 5 3 11 20 22 13 15 8 8 3 3 4 4 3 5 3 7 9 14 15 8 7 8 3 11 12 16 14 12
17 18 20 20 20 20 19 20 19 19 16 15 14 12 3 2 5 2 14 19 18 11 13 8 7 3 3 2 4 4 2 8 11 12 12 10 7 6 10 4 12 13 13 12 11
17 17 18 19 21 21 21 19 20 19 15 13 11 9 3 5 3 7 16 18 14 10 11 7 3 5 3 0 2 0 8 14 11 11 11 10 5 6 7 10 13 14 14 12 11
19 19 18 19 20 22 22 21 21 19 16 11 7 3 2 4 3 11 18 11 14 9 8 12 7 6 3 3 2 5 12 8 9 10 6 11 5 4 10 13 14 14 13 12 11
19 20 20 21 21 22 22 21 21 18 11 6 4 2 6 1 4 12 11 9 9 7 3 2 3 4 1 2 2 5 4 5 7 5 3 4 3 6 14 14 14 14 12 12 12
20 21 21 21 21 20 21 22 16 5 4 8 4 2 3 3 4 10 11 12 8 6 3 3 1 1 2 4 5 6 4 3 7 3 3 5 1 6 14 15 13 13 14 13 11
21 21 21 20 19 19 21 15 3 0 4 4 2 3 2 3 4 7 7 10 7 6 4 5 2 2 2 2 4 4 3 4 8 8 8 9 6 7 14 15 16 13 13 13 12
21 21 21 20 19 16 11 2 3 3 3 5 1 2 1 3 4 5 11 9 7 10 9 4 6 6 4 4 3 4 4 12 7 3 5 11 7 9 12 16 15 12 11 10 10
22 22 21 20 19 17 2 2 3 3 5 6 9 7 4 2 3 9 12 9 9 11 8 5 10 5 6 6 6 3 7 5 4 3 2 7 11 9 14 19 17 14 11 11 12
22 21 21 20 23 2 2 2 4 3 3 3 4 4 3 7 4 12 17 7 10 11 12 7 4 13 8 8 9 5 6 6 3 7 4 1 13 13 14 15 13 13 15 16 15
22 21 20 23 2 2 2 2 5 5 2 2 4 3 6 6 5 5 13 8 4 12 9 5 5 10 10 7 7 7 6 7 8 8 4 6 8 11 19 18 17 17 17 16 14
22 20 18 8 4 3 3 6 3 4 4 3 4 2 1 7 5 8 3 3 11 8 6 5 8 10 8 4 11 2 6 7 6 5 2 9 6 4 8 15 19 20 19 18 18
23 20 16 2 2 5 5 3 3 3 3 3 4 6 8 4 2 4 7 3 3 6 1 3 2 3 3 8 7 13 8 6 3 1 5 4 7 6 9 14 16 18 19 19 18
25 22 4 3 1 5 5 2 3 4 1 2 2 5 8 8 5 7 14 13 12 11 10 3 3 3 9 11 7 3 7 1 3 3 3 2 6 12 7 5 12 18 19 19 17
27 12 7 3 3 6 1 2 4 1 2 1 2 4 7 7 3 4 13 15 5 9 7 12 7 9 9 2 7 11 3 2 4 2 5 2 6 3 2 5 9 8 15 15 18
19 0 2 2 4 2 2 3 1 1 3 4 0 4 5 4 3 4 10 19 15 14 14 10 12 5 4 5 2 8 6 2 4 0 5 2 6 15 10 11 5 10 14 17 19
4 2 4 5 3 1 1 2 2 2 4 2 2 2 5 8 8 7 8 2 5 11 8 9 10 3 5 6 7 5 12 5 3 3 4 4 7 7 7 5 7 12 15 15 16
2 1 4 3 3 2 2 3 2 1 4 2 0 2 2 5 3 4 10 2 1 4 5 8 5 5 7 9 13 7 6 2 2 2 4 4 4 3 10 4 11 12 12 16 17
3 2 4 3 0 1 2 2 3 2 5 2 1 2 2 3 4 3 5 1 5 4 10 8 7 8 8 3 3 5 5 9 7 6 2 3 5 2 7 6 9 10 12 13 15
3 3 2 3 2 2 0 0 3 3 4 5 3 4 4 3 3 2 3 1 7 2 6 8 8 8 9 6 5 7 8 8 4 2 8 4 3 2 2 4 7 9 12 12 13
2 1 2 4 2 1 2 1 2 4 3 2 2 0 2 3 6 4 3 1 4 7 4 5 7 16 14 10 6 8 10 15 15 5 5 9 6 4 5 6 8 8 10 14 15
4 3 2 2 3 2 1 1 2 1 3 6 3 5 1 3 2 4 3 2 3 9 2 2 6 4 11 13 14 17 17 15 17 20 11 9 15 14 7 8 12 12 12 13 15
3 3 1 2 2 1 1 2 3 3 4 2 3 3 2 3 4 3 2 3 4 6 4 4 2 1 5 9 14 13 19 17 21 15 15 11 14 8 7 5 9 15 15 16 17
2 1 3 2 1 2 1 1 3 2 3 5 2 1 3 4 4 4 5 6 4 4 4 4 1 1 5 4 7 15 24 16 13 14 16 13 19 6 12 13 15 16 18 19 19
Wind_Direction
350 348 346 343 343 339 335 334 335 334 334 327 335 330 330 329 314 167 234 194 165 155 147 141 147 150 179 178 178 155 110 144 143 164 148 161 146 154 116 130 72 23 102 116 139
348 346 344 341 339 338 334 331 331 332 331 326 330 327 328 332 273 239 256 143 141 150 149 159 165 165 176 155 174 232 98 87 181 169 168 167 165 144 152 139 82 96 104 124 137
346 344 342 338 336 333 332 328 327 330 329 325 326 324 321 319 259 241 143 142 147 160 149 158 156 179 165 186 169 164 138 184 146 177 158 161 171 150 156 163 167 160 148 145 142
344 341 338 335 332 330 326 325 323 325 326 322 322 322 317 237 182 14 142 145 148 144 152 148 164 201 237 187 189 218 230 158 125 136 152 163 149 153 180 31 174 157 153 153 159
342 339 336 333 330 326 325 323 322 320 322 317 318 324 303 205 255 53 140 144 153 148 169 168 178 207 273 202 169 251 77 127 128 144 148 152 168 159 209 113 142 145 158 163 166
340 336 333 330 327 324 322 321 317 313 313 309 310 318 266 220 34 137 150 150 165 173 177 192 206 251 292 250 174 188 144 126 141 142 155 152 162 167 191 141 147 162 173 174 180
336 333 332 331 327 322 320 318 313 307 300 291 287 266 199 226 26 141 150 161 171 183 183 226 250 236 167 146 309 126 107 112 140 139 174 134 170 250 151 168 167 180 182 181 187
331 331 330 330 327 320 316 315 311 301 281 239 206 219 242 131 81 152 153 153 176 215 251 154 157 150 221 167 35 108 91 125 179 155 140 231 182 201 159 175 189 185 191 194 189
328 327 327 327 324 319 316 316 309 320 127 151 164 231 243 134 181 170 174 165 178 224 260 97 318 77 117 118 113 29 146 167 172 194 177 225 282 183 178 188 198 204 198 195 187
326 325 326 327 323 322 318 310 284 295 131 209 243 244 218 141 144 146 177 156 182 186 225 211 126 188 133 176 172 154 146 181 198 196 209 206 214 183 185 199 209 206 207 204 195
325 326 327 326 323 324 324 218 211 171 204 224 210 292 313 340 177 166 168 158 145 176 186 178 222 207 170 156 179 134 207 220 190 106 226 233 225 219 195 206 217 198 199 200 202
327 326 326 326 324 323 201 183 96 27 296 234 244 277 267 322 150 150 173 167 171 177 146 163 228 137 136 161 161 133 193 197 81 111 175 320 267 246 206 214 216 190 178 195 187
326 327 328 327 320 249 285 152 12 189 260 285 194 218 219 175 229 173 181 164 163 160 188 200 59 154 142 164 167 204 223 177 165 175 206 213 270 239 234 233 211 193 191 199 193
327 328 330 328 247 336 217 71 321 208 336 203 204 234 157 160 221 175 190 165 155 195 162 229 166 162 176 201 202 240 208 174 158 166 214 210 272 231 219 225 213 199 197 198 191
326 327 329 326 322 216 81 328 150 222 188 116 155 109 142 187 127 183 186 161 157 157 185 180 176 173 201 227 188 97 177 157 166 191 239 192 257 257 184 222 214 208 207 203 192
325 324 324 134 211 263 318 317 196 225 188 133 129 161 159 182 127 119 169 79 117 136 185 208 93 150 103 49 128 133 118 97 87 197 240 341 256 258 200 212 205 203 211 206 193
326 321 252 182 63 325 303 171 188 231 343 89 137 172 181 167 138 177 180 186 190 178 196 132 122 77 131 100 127 150 176 221 215 202 280 329 223 260 240 217 208 197 203 205 182
328 322 173 233 293 336 225 151 218 111 4 37 45 114 190 162 158 136 177 188 187 196 177 206 194 180 173 252 200 182 234 216 295 297 317 172 242 273 276 307 222 214 202 190 189
321 128 156 303 249 243 170 198 257 121 326 319 140 161 175 164 175 157 187 202 198 193 208 200 224 175 197 132 205 145 206 53 112 97 267 238 263 267 262 234 218 182 173 180 185
331 322 28 358 132 195 177 223 202 250 322 220 238 237 160 169 177 198 177 155 203 202 214 197 215 173 146 136 72 241 152 165 224 243 260 250 276 266 314 181 169 175 176 171 177
319 166 24 325 268 84 223 212 270 275 353 259 173 174 127 141 164 170 177 89 326 179 191 174 223 122 164 206 192 156 189 129 162 246 269 306 307 223 284 275 189 186 177 168 173
333 164 16 257 165 10 184 182 334 324 14 360 127 28 86 67 120 124 153 46 353 215 190 191 227 212 210 119 241 205 166 193 236 182 256 336 286 215 294 235 195 186 178 172 172
11 308 22 278 210 176 176 112 12 18 37 14 48 21 17 79 120 131 131 78 4 133 173 176 205 212 228 183 137 221 182 188 116 138 204 236 330 104 42 159 196 185 169 168 164
315 250 37 61 24 115 146 96 148 49 66 28 23 144 117 73 32 125 117 88 337 10 18 213 205 219 229 239 185 203 198 199 206 221 234 235 260 234 108 163 179 179 178 172 170
5 67 19 47 76 82 219 126 150 148 40 27 83 46 62 128 99 75 15 341 86 3 66 313 232 209 236 242 221 229 233 200 206 228 227 275 232 245 234 201 197 189 171 180 170
359 340 59 67 315 227 359 170 178 128 349 40 105 54 41 94 33 128 345 19 32 346 33 5 185 183 261 236 222 230 233 219 222 228 246 246 256 263 223 194 196 179 180 185 181
38 152 292 38 80 231 80 144 131 166 58 39 113 96 90 68 339 306 289 291 288 330 339 355 15 248 236 349 224 235 235 222 217 206 227 222 246 197 211 213 201 191 188 191 188